OBJECT C, 51826

Orbit data source: Space-Track

You're viewing an Uncataloged Satellite

Recently launched and/or uncataloged satellites may have evolving metadata. Metadata may include but not limited to: Owner, Maufacturer, Bus, Motor, and Mission.

OBJECT C, 51826 is a satellite owned by Xiamen Tianwei (CN) in SSO that was launched on Sun, 27 Feb 2022 UTC via a CHANG ZHENG 8 launch vehicle from the Wenchang Satellite Launch Center (WSC). Unknown objects in Earth's orbit typically refer to objects detected orbiting the Earth but have not yet been identified or cataloged. These objects could be anything from previously untracked satellites, spent rocket stages, debris from satellite collisions, or even natural meteoroids temporarily captured by Earth's gravity.

Loading next visibility...
OBJECT C details
Identifier
51826, 2022-019C
Orbit
SSO
Last TLE update8 hours ago
Origin
Flag of CNXiamen Tianwei (CN / PRC)
ManufacturerChangguang WJ
MissionOperational Commercial Imaging
Bus & MotorJL1MF02, Unknown motor
Mass32.5 kg wet, 32.5 kg dry
Launch date (UTC)
2022-02-27 (3 years ago)
Launch vehicle
CHANG ZHENG 8
Launch site
Wenchang Satellite Launch Center (WSC)
Object typeUnknown
Shape & HBRBox + 2 Pan, 1.5 m
Radar Cross Section2.000 m², Medium (>0.1 m² and < 1m²)

Expand to show TLE details & history

TLE from 8 hours ago
0 OBJECT C
1 51826U 22019C   25014.90505426  .00390481  00000-0  17425-2 0  9995
2 51826  97.3931 102.2763 0003899 227.7550 132.3389 15.83248419160296
Epoch: 2025-01-14T21:43Z
Definitive object data (Epoch: 2025-01-14T21:43:16.688Z)
Latitude0.00001°
Longitude21.85172°
Altitude326.198 km
Speed7.712 km/s
True Right ascension06h 49m 06s
True Declination0° 00' 00"
Sunlit
Object was in full shadow at TLE epoch
Visualization TLE readout
Latitude-26.97063°
Longitude-161.53317°
Altitude328.265 km
Speed7.712 km/s
Apparent Right ascension18h 42m 02s
Apparent Declination-33° 07' 22"
Sunlit
Object is in daylight
Visualization observer readout
Local Sidereal Time06:49:56
Azimuth13.753° NNE
Elevation-83.024°
Doppler factor1
Orbital elements
Apogee altitude320.754 km
Perigee altitude315.532 km
Semi-major axis6,696.28 km
Eccentricity0.0003899
Inclination97.3931°
RAAN102.2763°
Arg. of periapsis227.755°
True anomaly132.37191°
Mean anomaly132.3389°
Eccentric anomaly132.35541°
Mean motion3.96089 °/min
BSTAR0.0017425
Orbital period90.89 mins
Loading maneuver chart data...
Loading historical data...
Loading historical data...
Loading historical data...
Loading historical data...
Loading historical data...
Loading historical data...
Loading historical data...

OBJECT C Visibility forecast

Observer location: undefined°, undefined

Span
Click to sort rows by Start time (UTC) header in descending order
Start Az.
Max El. time (UTC)
Max El. Az.
Max El.
End time (UTC)
End Az.
4 mins2025-01-16 05:42:36.247Z162.362° S2025-01-16 05:44:36.247Z2.563° NNE39.393°2025-01-16 05:46:36.247Z350.519° N
|